Weather History for Valparaiso, IN

Change the Weather History Date:

Friday, January 31, 2014

  Actual Average Record
Temperature  
Mean Temperature 26 °F 24 °F  
Max Temperature 31 °F 32 °F 56 °F (2012)
Min Temperature 21 °F 17 °F -10 °F (2004)
Degree Days  
Heating Degree Days 39 41  
Month to date heating degree days 1389 1286  
Since 1 July heating degree days 4072 3685  
Cooling Degree Days 0 0  
Month to date cooling degree days 0 0  
Year to date cooling degree days 0 0  
Moisture  
Dew Point 19 °F    
Average Humidity 85    
Maximum Humidity 100    
Minimum Humidity 69    
Precipitation  
Precipitation 0.02 in 0.06 in 0.51 in (2002)
Month to date precipitation 0.95 1.75  
Year to date precipitation 0.95 1.75  
Sea Level Pressure  
Sea Level Pressure 30.10 in    
Wind  
Wind Speed 5 mph (NNE)    
Max Wind Speed 18 mph    
Max Gust Speed 23 mph    
Visibility 6 miles    
Events Snow    
T = Trace of Precipitation, MM = Missing Value Source: NWS Daily Summary

Daily Weather History Graph

Daily Weather History Graph

Search for Another Location

Airport:

Trip Planner

Search our weather history database for the weather conditions in past years. The results will help you decide how hot, cold, wet, or windy it might be!

Date:

Astronomy

Jan. 31, 2014 Rise Set
Actual Time 7:00 AM CST 5:02 PM CST
Civil Twilight 6:31 AM CST 5:32 PM CST
Nautical Twilight 5:58 AM CST 6:05 PM CST
Astronomical Twilight 5:25 AM CST 6:38 PM CST
Moon 7:08 AM CST (1/31) 6:28 PM CST (1/31)
Length of Visible Light 11h 01m
Length of Day
10h 02m
New Moon, 1% of the Moon is Illuminated
Jan 31
New Moon
Feb 6
First Quarter
Feb 14
Full
Feb 22
Last Quarter
Mar 1
New

Hourly Weather History & Observations

Time (CST) Temp. Windchill Dew Point Humidity Pressure Visibility Wind Dir Wind Speed Gust Speed Precip Events Conditions
12:53 AM 28.9 °F 17.3 °F 23.0 °F 78% 29.93 in 10.0 mi West 16.1 mph - N/A   Scattered Clouds
1:53 AM 25.0 °F 12.2 °F 21.9 °F 88% 29.96 in 7.0 mi West 16.1 mph - N/A   Partly Cloudy
2:53 AM 23.0 °F 12.4 °F 19.9 °F 88% 29.99 in 8.0 mi WNW 10.4 mph - N/A   Clear
3:53 AM 21.9 °F 13.4 °F 19.0 °F 89% 30.00 in 8.0 mi WNW 6.9 mph - N/A   Partly Cloudy
4:53 AM 23.0 °F 17.0 °F 19.9 °F 88% 30.03 in 7.0 mi WNW 4.6 mph - N/A   Overcast
5:53 AM 23.0 °F - 19.9 °F 88% 30.07 in 8.0 mi Calm Calm - N/A   Overcast
6:53 AM 21.9 °F 17.2 °F 18.0 °F 85% 30.10 in 7.0 mi SW 3.5 mph - N/A   Overcast
7:37 AM 21.9 °F 13.4 °F 17.1 °F 82% 30.08 in 10.0 mi North 6.9 mph - N/A   Overcast
7:53 AM 21.9 °F 13.4 °F 16.0 °F 78% 30.12 in 10.0 mi North 6.9 mph - N/A   Overcast
8:53 AM 23.0 °F - 15.1 °F 72% 30.13 in 10.0 mi Calm Calm - N/A   Overcast
9:34 AM 23.0 °F 17.0 °F 15.1 °F 72% 30.11 in 10.0 mi NNW 4.6 mph - N/A   Overcast
9:53 AM 23.0 °F 17.0 °F 16.0 °F 74% 30.15 in 10.0 mi North 4.6 mph - N/A   Overcast
10:53 AM 24.1 °F 18.2 °F 16.0 °F 71% 30.16 in 10.0 mi North 4.6 mph - N/A   Overcast
11:03 AM 24.1 °F 19.7 °F 17.1 °F 75% 30.14 in 10.0 mi NNW 3.5 mph - N/A   Overcast
11:34 AM 24.1 °F 18.2 °F 17.1 °F 75% 30.14 in 10.0 mi WNW 4.6 mph - N/A   Overcast
11:53 AM 24.1 °F 19.7 °F 16.0 °F 71% 30.17 in 10.0 mi West 3.5 mph - N/A   Overcast
12:30 PM 24.1 °F - 16.0 °F 71% 30.13 in 10.0 mi Calm Calm - N/A   Overcast
12:53 PM 24.1 °F 19.7 °F 16.0 °F 71% 30.15 in 10.0 mi West 3.5 mph - N/A   Overcast
1:49 PM 24.8 °F - 15.8 °F 69% 30.12 in 10.0 mi Calm Calm - N/A   Overcast
1:53 PM 24.1 °F 19.7 °F 16.0 °F 71% 30.15 in 9.0 mi NW 3.5 mph - N/A   Overcast
2:53 PM 25.0 °F - 17.1 °F 72% 30.14 in 3.0 mi Calm Calm - 0.00 in Snow Light Snow
3:24 PM 24.1 °F 19.7 °F 19.0 °F 81% 30.11 in 2.5 mi North 3.5 mph - 0.00 in Snow Light Snow
3:42 PM 24.1 °F - 19.0 °F 81% 30.11 in 3.0 mi Calm Calm - 0.00 in Snow Light Snow
3:53 PM 24.1 °F - 19.9 °F 84% 30.15 in 4.0 mi Calm Calm - 0.00 in Snow Light Snow
4:53 PM 23.0 °F 18.4 °F 21.0 °F 92% 30.15 in 4.0 mi ENE 3.5 mph - 0.00 in Snow Light Snow
5:53 PM 23.0 °F 18.4 °F 21.0 °F 92% 30.14 in 5.0 mi East 3.5 mph - 0.00 in Snow Light Snow
6:53 PM 23.0 °F 18.4 °F 21.0 °F 92% 30.14 in 7.0 mi ESE 3.5 mph - 0.00 in   Overcast
7:19 PM 23.0 °F - 21.9 °F 96% 30.11 in 2.5 mi Calm Calm - 0.00 in Snow Light Snow
7:53 PM 23.0 °F 18.4 °F 21.9 °F 96% 30.15 in 2.0 mi East 3.5 mph - 0.00 in Snow Light Snow
8:06 PM 23.0 °F 18.4 °F 21.9 °F 96% 30.11 in 1.8 mi ENE 3.5 mph - 0.00 in Snow Light Snow
8:25 PM 23.0 °F 17.0 °F 21.9 °F 96% 30.10 in 2.0 mi ENE 4.6 mph - 0.00 in Snow Light Snow
8:53 PM 23.0 °F 17.0 °F 21.9 °F 96% 30.14 in 3.0 mi ENE 4.6 mph - 0.00 in Snow Light Snow
9:24 PM 23.0 °F 18.4 °F 21.9 °F 96% 30.10 in 2.5 mi ENE 3.5 mph - 0.00 in Snow Light Snow
9:36 PM 23.0 °F 18.4 °F 21.9 °F 96% 30.10 in 2.0 mi ENE 3.5 mph - 0.00 in Snow Light Snow
9:43 PM 23.0 °F 17.0 °F 21.9 °F 96% 30.10 in 1.8 mi ENE 4.6 mph - 0.00 in Snow Light Snow
9:53 PM 23.0 °F 17.0 °F 21.9 °F 96% 30.13 in 1.8 mi ENE 4.6 mph - 0.00 in Snow Light Snow
10:25 PM 23.0 °F 17.0 °F 21.9 °F 96% 30.08 in 2.0 mi East 4.6 mph - 0.01 in Snow Light Snow
10:35 PM 23.0 °F 17.0 °F 23.0 °F 100% 30.08 in 1.5 mi East 4.6 mph - 0.01 in Snow Light Snow
10:53 PM 23.0 °F 18.4 °F 23.0 °F 100% 30.12 in 1.5 mi East 3.5 mph - 0.01 in Snow Light Snow
11:53 PM 24.1 °F 17.0 °F 23.0 °F 96% 30.10 in 1.8 mi East 5.8 mph - 0.01 in Snow Light Snow